Station BGXN3 - Greenland, Great Bay Reserve, NH Image indicating link to RSS feed of recent meteorological observations for station BGXN3


Conditions at BGXN3 as of
(9:45 am EDT)
1345 GMT on 07/15/2024:
     

Click on the graph icon in the table below to see a time series plot of the last five days of that observation.

5-day plot - Wind Direction Wind Direction (WDIR): W ( 280 deg true )
5-day plot - Wind Speed Wind Speed (WSPD): 1.9 kts
5-day plot - Atmospheric Pressure Atmospheric Pressure (PRES):29.85 in
5-day plot - Air Temperature Air Temperature (ATMP): 79.7 °F
5-day plot - Dew Point Dew Point (DEWP): 72.9 °F
5-day plot - Heat Index Heat Index (HEAT): 83.5 °F
5-day plot -  Wind Speed, Wind Gust and Atmospheric Pressure Combined plot of Wind Speed, Gust, and Air Pressure
Previous observations
TIME
(EDT)
5-day plot - Wind Direction
WDIR
 
5-day plot - Wind Speed
WSPD
kts
5-day plot - Wind Gust
GST
kts
5-day plot - Wave Height
WVHT
ft
5-day plot - Dominant Wave Period
DPD
sec
5-day plot - Average Wave Period
APD
sec
5-day plot - Mean Wave Direction
MWD
 
5-day plot - Atmospheric Pressure
PRES
in
5-day plot - Pressure Tendency
PTDY
in
5-day plot - Air Temperature
ATMP
°F
5-day plot - Water Temperature
WTMP
°F
5-day plot - Dew Point
DEWP
°F
5-day plot - Salinity
SAL
psu
5-day plot - Visibility
VIS
nmi
5-day plot - Tide (above MLLW)
TIDE
ft
2024-07-15 09:30 am W 1.0-----29.85- 78.8- 72.0---
2024-07-15 09:15 am- 0.0-----29.85- 76.3- 70.9---
2024-07-15 09:00 am- 0.0-----29.85- 75.2- 69.8---
2024-07-15 08:45 am- 0.0-----29.88- 73.9- 68.9---
2024-07-15 08:30 amWNW 1.9-----29.88- 73.9- 69.3---
2024-07-15 08:15 am- 0.0-----29.88- 73.4- 68.7---
2024-07-15 08:00 amWNW 1.0-----29.88+0.00 72.7- 69.1---
2024-07-15 07:45 am- 0.0-----29.88- 71.8- 69.1---
2024-07-15 07:30 am- 0.0-----29.88- 70.9- 68.5---
2024-07-15 07:15 am- 0.0-----29.88- 70.0- 68.9---
2024-07-15 07:00 am- 0.0-----29.88+0.00 69.3- 68.4---
2024-07-15 05:45 am- 0.0-----29.88- 63.0- 62.6---
2024-07-15 05:30 am- 0.0-----29.88- 62.8- 62.2---
2024-07-15 05:15 am- 0.0-----29.88- 62.2- 61.7---
2024-07-15 05:00 am- 0.0-----29.88+0.00 62.2- 61.7---
2024-07-15 04:45 am E 1.0-----29.88- 62.2- 61.7---
2024-07-15 04:30 am- 0.0-----29.88- 62.4- 61.9---
2024-07-15 04:15 am- 0.0-----29.88- 62.4- 61.9---
2024-07-15 04:00 am E 1.0-----29.88-0.03 62.1- 61.5---
2024-07-15 03:45 am E 1.0-----29.85- 62.2- 61.7---
2024-07-15 03:30 am- 0.0-----29.88- 62.8- 61.9---
2024-07-15 03:15 amNNE 1.0-----29.88- 63.0- 62.4---
2024-07-15 03:00 amESE 1.0-----29.88-0.03 63.0- 62.4---
2024-07-15 02:45 am E 1.0-----29.88- 62.8- 61.9---
2024-07-15 02:30 am- 0.0-----29.88- 63.0- 62.1---
2024-07-15 02:15 am- 0.0-----29.88- 63.1- 62.2---
2024-07-15 02:00 am- 0.0-----29.88-0.03 63.5- 62.4---
2024-07-15 01:45 am- 0.0-----29.88- 63.9- 62.8---
2024-07-15 01:30 am- 0.0-----29.88- 64.2- 63.1---
2024-07-15 01:15 am- 0.0-----29.88- 64.2- 63.1---
2024-07-15 01:00 am- 0.0-----29.91+0.00 64.4- 63.3---
2024-07-15 12:45 am S 1.0-----29.91- 63.9- 62.8---
2024-07-15 12:30 amSSE 1.9-----29.91- 64.4- 63.3---
2024-07-15 12:15 am- 0.0-----29.91- 64.6- 63.5---
2024-07-15 12:00 am- 0.0-----29.91+0.00 64.6- 63.5---
2024-07-14 11:45 pm- 0.0-----29.91- 64.4- 63.3---
2024-07-14 11:30 pm- 0.0-----29.91- 64.9- 63.5---
2024-07-14 11:15 pm- 0.0-----29.91- 65.5- 64.4---
2024-07-14 11:00 pmENE 1.0-----29.91+0.00 65.7- 64.2---
2024-07-14 10:45 pmENE 1.0-----29.91- 65.8- 64.4---
2024-07-14 10:30 pm E 1.0-----29.91- 66.6- 64.8---
2024-07-14 10:15 pmENE 1.0-----29.91- 67.1- 65.1---
2024-07-14 10:00 pmENE 1.9-----29.91+0.00 67.5- 65.1---
2024-07-14 09:45 pmENE 1.0-----29.91- 68.2- 65.1---
2024-07-14 09:30 pmENE 1.9-----29.91- 69.1- 65.5---
2024-07-14 09:15 pm E 1.0-----29.91- 70.3- 65.3---
2024-07-14 09:00 pm E 1.0-----29.91+0.00 71.6- 65.7---
2024-07-14 08:45 pmESE 1.0-----29.91- 72.5- 65.5---
2024-07-14 08:30 pmESE 1.0-----29.91- 73.8- 65.5---
2024-07-14 08:15 pmESE 1.9-----29.91- 74.8- 65.5---
2024-07-14 08:00 pm SE 1.9-----29.91+0.00 75.4- 65.5---
2024-07-14 07:45 pmESE 1.0-----29.91- 76.8- 65.7---
2024-07-14 07:30 pm SE 1.9-----29.91- 77.4- 65.5---
2024-07-14 07:15 pm SE 1.9-----29.91- 77.9- 65.8---
2024-07-14 07:00 pm SE 1.9-----29.91-0.03 78.4- 66.0---
2024-07-14 06:45 pmSSE 2.9-----29.91- 80.1- 66.7---
2024-07-14 06:30 pmSSE 2.9-----29.91- 81.1- 67.6---
2024-07-14 06:15 pmSSE 1.9-----29.91- 81.9- 67.8---
2024-07-14 06:00 pm SE 2.9-----29.91-0.03 82.0- 68.0---
2024-07-14 05:45 pm SE 1.9-----29.91- 82.6- 68.5---
2024-07-14 05:30 pm SE 1.9-----29.91- 82.4- 67.5---
2024-07-14 05:15 pm SE 2.9-----29.91- 82.6- 66.7---
2024-07-14 05:00 pmSSE 1.9-----29.91-0.06 84.0- 68.0---
2024-07-14 04:45 pm SE 1.9-----29.91- 83.7- 67.6---
2024-07-14 04:30 pm SE 2.9-----29.91- 83.8- 67.5---
2024-07-14 04:15 pm SE 1.9-----29.94- 84.7- 68.2---
2024-07-14 04:00 pmSSE 2.9-----29.94-0.03 84.6- 68.0---
2024-07-14 03:45 pm SE 2.9-----29.94- 84.7- 67.8---
2024-07-14 03:30 pmSSE 1.9-----29.94- 85.3- 68.2---
2024-07-14 03:15 pmESE 1.9-----29.94- 86.5- 68.9---
2024-07-14 03:00 pmWNW 1.0-----29.94-0.06 87.1- 66.2---
2024-07-14 02:45 pm W 2.9-----29.94- 86.7- 66.9---
2024-07-14 02:30 pm W 4.1-----29.94- 86.2- 66.4---
2024-07-14 02:15 pm W 4.1-----29.94- 86.2- 66.9---
2024-07-14 02:00 pm W 4.1-----29.97-0.03 85.8- 66.6---
2024-07-14 01:45 pm W 2.9-----29.97- 85.8- 68.2---
2024-07-14 01:30 pm W 1.9-----29.97- 85.6- 67.5---
2024-07-14 01:15 pm W 1.9-----29.97- 85.3- 67.3---
2024-07-14 01:00 pmNNW 1.0-----29.97-0.06 85.1- 67.1---
2024-07-14 12:45 pm SW 1.0-----29.97- 84.9- 67.5---
2024-07-14 12:30 pm NW 1.9-----30.00- 84.6- 67.6---
2024-07-14 12:15 pmWNW 1.9-----30.00- 84.2- 66.7---
2024-07-14 12:00 pmWNW 1.9-----30.00-0.03 83.3- 66.9---
2024-07-14 11:45 amWNW 1.9-----30.00- 82.6- 69.1---
2024-07-14 11:30 am W 1.9-----30.00- 81.9- 70.5---
2024-07-14 11:15 am W 1.9-----30.00- 80.8- 70.7---
2024-07-14 11:00 amWSW 1.9-----30.00-0.03 80.2- 71.1---
2024-07-14 10:45 am W 1.9-----30.03- 79.7- 70.5---
2024-07-14 10:30 am W 1.9-----30.03- 79.3- 70.9---
2024-07-14 10:15 am W 1.9-----30.03- 78.6- 71.1---
2024-07-14 10:00 am W 1.9-----30.03+0.00 77.7- 70.9---